Meteo pe oră la Allaguvat

Astăzi, 17 Ianuarie, Duminică

Timp Temperatura Precipitaţii Vânt Presiune Umiditate
00:00 -15°C° 0.1 mm 7 m/s 741 mmHg 91%
01:00 -14°C° 0.1 mm 7 m/s 741 mmHg 91%
02:00 -15°C° 0.1 mm 8 m/s 740 mmHg 90%
03:00 -13°C° 0.1 mm 8 m/s 740 mmHg 90%
04:00 -14°C° 0.1 mm 9 m/s 740 mmHg 89%
05:00 -15°C° 0 mm 8 m/s 740 mmHg 89%
06:00 -17°C° 0 mm 8 m/s 740 mmHg 89%
07:00 -18°C° 0 mm 8 m/s 740 mmHg 88%
08:00 -19°C° 0 mm 7 m/s 740 mmHg 89%
09:00 -20°C° 0 mm 7 m/s 741 mmHg 90%
10:00 -20°C° 0 mm 7 m/s 741 mmHg 91%
11:00 -20°C° 0.1 mm 7 m/s 742 mmHg 90%
12:00 -20°C° 0.1 mm 6 m/s 742 mmHg 89%
13:00 -20°C° 0.1 mm 6 m/s 743 mmHg 88%
14:00 -20°C° 0 mm 5 m/s 744 mmHg 90%
15:00 -20°C° 0 mm 4 m/s 744 mmHg 91%
16:00 -22°C° 0 mm 4 m/s 745 mmHg 92%
17:00 -22°C° 0 mm 3 m/s 745 mmHg 94%
18:00 -23°C° 0 mm 3 m/s 745 mmHg 95%
19:00 -24°C° 0 mm 3 m/s 746 mmHg 97%
20:00 -24°C° 0 mm 2 m/s 746 mmHg 97%
21:00 -24°C° 0 mm 2 m/s 747 mmHg 97%
22:00 -25°C° 0 mm 2 m/s 747 mmHg 97%
23:00 -22°C° 0 mm 1 m/s 747 mmHg 97%

Mâine, 18 Ianuarie, Luni

Timp Temperatura Precipitaţii Vânt Presiune Umiditate
00:00 -23°C° 0 mm 1 m/s 748 mmHg 97%
01:00 -23°C° 0 mm 1 m/s 748 mmHg 97%
02:00 -23°C° 0 mm 1 m/s 748 mmHg 97%
03:00 -24°C° 0 mm 1 m/s 748 mmHg 97%
04:00 -24°C° 0 mm 1 m/s 748 mmHg 97%
05:00 -24°C° 0 mm 1 m/s 748 mmHg 97%
06:00 -24°C° 0 mm 1 m/s 748 mmHg 97%
07:00 -24°C° 0 mm 1 m/s 748 mmHg 97%
08:00 -23°C° 0 mm 0 m/s 748 mmHg 96%
09:00 -22°C° 0 mm 0 m/s 748 mmHg 95%
10:00 -21°C° 0 mm 0 m/s 748 mmHg 94%
11:00 -20°C° 0 mm 0 m/s 748 mmHg 92%
12:00 -19°C° 0 mm 0 m/s 747 mmHg 91%
13:00 -18°C° 0 mm 1 m/s 747 mmHg 90%
14:00 -19°C° 0 mm 1 m/s 747 mmHg 91%
15:00 -19°C° 0 mm 1 m/s 747 mmHg 93%
16:00 -23°C° 0 mm 2 m/s 747 mmHg 94%
17:00 -23°C° 0 mm 2 m/s 747 mmHg 94%
18:00 -23°C° 0 mm 2 m/s 747 mmHg 94%
19:00 -23°C° 0 mm 2 m/s 746 mmHg 94%
20:00 -23°C° 0 mm 2 m/s 746 mmHg 94%
21:00 -21°C° 0 mm 2 m/s 746 mmHg 94%
22:00 -21°C° 0 mm 2 m/s 746 mmHg 94%
23:00 -20°C° 0 mm 2 m/s 745 mmHg 94%

Poimâine, 19 Ianuarie, Marţi

Timp Temperatura Precipitaţii Vânt Presiune Umiditate
00:00 -19°C° 0 mm 2 m/s 745 mmHg 94%
01:00 -18°C° 0 mm 2 m/s 745 mmHg 94%
02:00 -18°C° 0 mm 2 m/s 745 mmHg 94%
03:00 -19°C° 0 mm 3 m/s 744 mmHg 94%
04:00 -19°C° 0 mm 3 m/s 744 mmHg 95%
05:00 -18°C° 0 mm 2 m/s 744 mmHg 94%
06:00 -17°C° 0 mm 2 m/s 743 mmHg 94%
07:00 -17°C° 0 mm 2 m/s 743 mmHg 94%
08:00 -17°C° 0 mm 2 m/s 743 mmHg 94%
09:00 -16°C° 0 mm 2 m/s 743 mmHg 94%
10:00 -16°C° 0 mm 2 m/s 742 mmHg 94%
11:00 -15°C° 0 mm 2 m/s 742 mmHg 93%
12:00 -12°C° 0 mm 1 m/s 742 mmHg 92%
13:00 -11°C° 0 mm 1 m/s 742 mmHg 91%
14:00 -11°C° 0.3 mm 1 m/s 741 mmHg 92%
15:00 -11°C° 0.3 mm 1 m/s 741 mmHg 94%
16:00 -11°C° 0.3 mm 1 m/s 741 mmHg 95%
17:00 -11°C° 0.4 mm 1 m/s 741 mmHg 96%
18:00 -11°C° 0.4 mm 1 m/s 741 mmHg 96%
19:00 -11°C° 0.4 mm 1 m/s 741 mmHg 96%
20:00 -12°C° 0.2 mm 1 m/s 742 mmHg 95%
21:00 -14°C° 0.2 mm 2 m/s 742 mmHg 95%
22:00 -15°C° 0.2 mm 3 m/s 742 mmHg 95%
23:00 -16°C° 0.1 mm 3 m/s 743 mmHg 95%

20 Ianuarie, Miercuri

Timp Temperatura Precipitaţii Vânt Presiune Umiditate
00:00 -17°C° 0.1 mm 3 m/s 743 mmHg 95%
01:00 -18°C° 0.1 mm 3 m/s 743 mmHg 95%
02:00 -18°C° 0.1 mm 3 m/s 744 mmHg 95%
03:00 -20°C° 0.1 mm 4 m/s 744 mmHg 94%
04:00 -22°C° 0.1 mm 4 m/s 745 mmHg 94%
05:00 -23°C° 0.1 mm 4 m/s 745 mmHg 95%
06:00 -23°C° 0.1 mm 4 m/s 746 mmHg 95%
07:00 -24°C° 0.1 mm 4 m/s 746 mmHg 95%
08:00 -25°C° 0 mm 4 m/s 746 mmHg 95%
09:00 -25°C° 0 mm 4 m/s 747 mmHg 95%
10:00 -26°C° 0 mm 4 m/s 747 mmHg 95%
11:00 -25°C° 0 mm 4 m/s 747 mmHg 95%
12:00 -26°C° 0 mm 5 m/s 748 mmHg 94%
13:00 -26°C° 0 mm 5 m/s 748 mmHg 93%
14:00 -26°C° 0 mm 5 m/s 748 mmHg 94%
15:00 -25°C° 0 mm 4 m/s 748 mmHg 94%
16:00 -25°C° 0 mm 4 m/s 748 mmHg 94%
17:00 -25°C° 0 mm 3 m/s 748 mmHg 95%
18:00 -25°C° 0 mm 3 m/s 749 mmHg 96%
19:00 -26°C° 0 mm 3 m/s 749 mmHg 96%
20:00 -26°C° 0 mm 3 m/s 749 mmHg 97%
21:00 -25°C° 0 mm 2 m/s 749 mmHg 97%
22:00 -25°C° 0 mm 2 m/s 749 mmHg 97%
23:00 -25°C° 0 mm 2 m/s 749 mmHg 97%

21 Ianuarie, Joi

Timp Temperatura Precipitaţii Vânt Presiune Umiditate
00:00 -25°C° 0 mm 2 m/s 749 mmHg 97%
01:00 -26°C° 0 mm 2 m/s 749 mmHg 97%
02:00 -23°C° 0 mm 1 m/s 749 mmHg 97%
03:00 -23°C° 0 mm 1 m/s 749 mmHg 97%
04:00 -23°C° 0 mm 1 m/s 749 mmHg 97%
05:00 -24°C° 0 mm 1 m/s 749 mmHg 98%
06:00 -25°C° 0 mm 1 m/s 749 mmHg 98%
07:00 -25°C° 0 mm 1 m/s 749 mmHg 99%
08:00 -25°C° 0 mm 1 m/s 749 mmHg 98%
09:00 -25°C° 0 mm 1 m/s 750 mmHg 97%
10:00 -24°C° 0 mm 1 m/s 750 mmHg 96%
11:00 -24°C° 0 mm 1 m/s 750 mmHg 95%
12:00 -23°C° 0 mm 1 m/s 750 mmHg 93%
13:00 -22°C° 0 mm 1 m/s 750 mmHg 92%
14:00 -22°C° 0 mm 1 m/s 750 mmHg 93%
15:00 -25°C° 0 mm 2 m/s 749 mmHg 93%
16:00 -25°C° 0 mm 2 m/s 749 mmHg 94%
17:00 -25°C° 0 mm 2 m/s 750 mmHg 94%
18:00 -26°C° 0 mm 3 m/s 750 mmHg 95%
19:00 -26°C° 0 mm 3 m/s 750 mmHg 96%
20:00 -26°C° 0.1 mm 3 m/s 750 mmHg 96%
21:00 -26°C° 0.1 mm 3 m/s 750 mmHg 97%
22:00 -25°C° 0.1 mm 3 m/s 750 mmHg 97%
23:00 -25°C° 0.1 mm 3 m/s 751 mmHg 97%

22 Ianuarie, Vineri

Timp Temperatura Precipitaţii Vânt Presiune Umiditate
00:00 -25°C° 0.1 mm 3 m/s 751 mmHg 97%
01:00 -25°C° 0.1 mm 3 m/s 751 mmHg 97%
02:00 -25°C° 0.1 mm 3 m/s 751 mmHg 97%
03:00 -26°C° 0.1 mm 4 m/s 751 mmHg 97%
04:00 -26°C° 0.1 mm 4 m/s 751 mmHg 97%
05:00 -26°C° 0.1 mm 4 m/s 750 mmHg 97%
06:00 -26°C° 0.1 mm 5 m/s 750 mmHg 97%
07:00 -26°C° 0.1 mm 5 m/s 750 mmHg 97%
08:00 -26°C° 0.3 mm 5 m/s 750 mmHg 96%
09:00 -26°C° 0.3 mm 6 m/s 749 mmHg 96%
10:00 -26°C° 0.3 mm 6 m/s 749 mmHg 96%
11:00 -24°C° 0.4 mm 6 m/s 749 mmHg 96%
12:00 -24°C° 0.4 mm 6 m/s 748 mmHg 95%
13:00 -23°C° 0.4 mm 6 m/s 748 mmHg 95%
14:00 -21°C° 0.3 mm 5 m/s 747 mmHg 94%
15:00 -20°C° 0.3 mm 5 m/s 747 mmHg 94%
16:00 -18°C° 0.3 mm 4 m/s 747 mmHg 93%
17:00 -18°C° 0.1 mm 4 m/s 747 mmHg 93%
18:00 -17°C° 0.1 mm 3 m/s 748 mmHg 94%
19:00 -17°C° 0.1 mm 3 m/s 748 mmHg 94%
20:00 -17°C° 0 mm 3 m/s 748 mmHg 94%
21:00 -16°C° 0 mm 2 m/s 748 mmHg 94%
22:00 -15°C° 0 mm 2 m/s 748 mmHg 94%
23:00 -15°C° 0.1 mm 2 m/s 748 mmHg 95%
Arată mai mult

Formular de consimțământ

Meteoprog și furnizorii noștri de servicii pot stoca și accesa date personale, precum cookies, identificatori de dispozitiv sau alte tehnologii similare pe dispozitivul dumneavoastră și procesa astfel de date pentru a personaliza conținutul și reclamele, dar și pentru a oferi caracteristici de social media și pentru a analiza traficul.

  • Stocarea și/sau accesarea informațiilor pe dispozitivul dumneavoastră

    Cookies, identificatori de dispozitiv sau alte informații pot fi stocate sau accesate pe dispozitiv în scopurile indicate mai sus.

  • Reclame și conținut personalizat, evaluarea reclamelor și a conținutului, informații despre audiențe și dezvoltarea produselor

    Reclamele și conținutul pot fi personalizate pe baza unui profil. Pot fi adăugate date suplimentare pentru a personaliza mai bine reclamele și conținutul. Performanța reclamelor și conținutului poate fi măsurată. Pot fi obținute informații despre utilizatorii care au văzut reclamele și conținutul. Aceste date pot fi utilizate pentru a dezvolta sau îmbunătăți experiența utilizatorilor, sistemele și software-ul.

Dând clic pe ‘Sunt de acord’, permiteți utilizarea cookie-urilor menționate, a identificatorilor de dispozitiv, balizelor web sau altor tehnologii similare. Setările pot fi modificate din browser-ul dispozitivului dumneavoastră.

În anumite scopuri, interesele legitime pot prima asupra consimțământului. Puteți citi mai multe informații în acest sens în Politica privind Confidențialitatea Datelor și Cookie.